H1 CPF 2 NER 2022 11 2 9 306 01 glonass140 H2 1903001 9140 44299 2022 11 2 0 0 0 2022 11 5 23 45 0 900 1 1 0 0 0 1 H9 10 0 59885 0.00000 0 12152032.452 12700734.642 -18466435.775 10 0 59885 900.00000 0 9853217.584 12042345.534 -20192300.995 10 0 59885 1800.00000 0 7327100.838 11518245.189 -21525251.591 10 0 59885 2700.00000 0 4631875.492 11162381.187 -22439233.918 10 0 59885 3600.00000 0 1832099.309 10998090.468 -22916351.266 10 0 59885 4500.00000 0 -1003751.731 11037066.487 -22947221.613 10 0 59885 5400.00000 0 -3805893.792 11278836.039 -22531168.179 10 0 59885 6300.00000 0 -6505901.161 11710768.546 -21676238.544 10 0 59885 7200.00000 0 -9039316.631 12308617.994 -20399051.494 10 0 59885 8100.00000 0 -11348097.451 13037574.955 -18724474.236 10 0 59885 9000.00000 0 -13382794.745 13853784.280 -16685136.037 10 0 59885 9900.00000 0 -15104375.370 14706264.066 -14320787.776 10 0 59885 10800.00000 0 -16485610.435 15539144.211 -11677520.117 10 0 59885 11700.00000 0 -17511972.994 16294129.106 -8806855.972 10 0 59885 12600.00000 0 -18182008.274 16913079.283 -5764735.763 10 0 59885 13500.00000 0 -18507162.398 17340601.802 -2610416.186 10 0 59885 14400.00000 0 -18511078.571 17526538.730 594694.951 10 0 59885 15300.00000 0 -18228392.411 17428247.671 3788243.863 10 0 59885 16200.00000 0 -17703079.339 17012577.305 6908151.336 10 0 59885 17100.00000 0 -16986425.796 16257454.200 9893824.030 10 0 59885 18000.00000 0 -16134711.687 15153013.936 12687332.249 10 0 59885 18900.00000 0 -15206703.238 13702229.135 15234531.127 10 0 59885 19800.00000 0 -14261062.864 11921008.340 17486103.665 10 0 59885 20700.00000 0 -13353785.507 9837762.055 19398505.985 10 0 59885 21600.00000 0 -12535769.084 7492454.398 20934797.580 10 0 59885 22500.00000 0 -11850620.446 4935180.037 22065341.805 10 0 59885 23400.00000 0 -11332787.856 2224325.541 22768364.535 10 0 59885 24300.00000 0 -11006096.980 -575609.036 23030361.704 10 0 59885 25200.00000 0 -10882750.375 -3396438.932 22846349.198 10 0 59885 26100.00000 0 -10962831.147 -6168874.391 22219951.323 10 0 59885 27000.00000 0 -11234330.617 -8825146.122 21163326.838 10 0 59885 27900.00000 0 -11673698.302 -11301569.597 19696934.183 10 0 59885 28800.00000 0 -12246891.061 -13540943.712 17849140.238 10 0 59885 29700.00000 0 -12910877.790 -15494686.173 15655679.535 10 0 59885 30600.00000 0 -13615537.188 -17124618.460 13158973.356 10 0 59885 31500.00000 0 -14305869.872 -18404327.412 10407320.777 10 0 59885 32400.00000 0 -14924432.861 -19320047.562 7453975.999 10 0 59885 33300.00000 0 -15413894.835 -19871027.899 4356128.569 10 0 59885 34200.00000 0 -15719605.188 -20069367.752 1173805.219 10 0 59885 35100.00000 0 -15792068.737 -19939328.531 -2031286.265 10 0 59885 36000.00000 0 -15589221.608 -19516149.935 -5196949.264 10 0 59885 36900.00000 0 -15078411.439 -18844419.835 -8261703.695 10 0 59885 37800.00000 0 -14237997.183 -17976066.064 -11165981.099 10 0 59885 38700.00000 0 -13058499.343 -16968054.306 -13853285.962 10 0 59885 39600.00000 0 -11543250.135 -15879888.954 -16271300.166 10 0 59885 40500.00000 0 -9708514.017 -14771022.342 -18372908.551 10 0 59885 41400.00000 0 -7583071.196 -13698281.814 -20117124.986 10 0 59885 42300.00000 0 -5207279.425 -12713423.577 -21469900.207 10 0 59885 43200.00000 0 -2631651.381 -11860917.004 -22404795.077 10 0 59885 44100.00000 0 84994.586 -11176053.474 -22903505.518 10 0 59885 45000.00000 0 2877734.316 -10683460.122 -22956228.254 10 0 59885 45900.00000 0 5677997.433 -10396081.794 -22561859.681 10 0 59885 46800.00000 0 8416184.629 -10314674.591 -21728023.455 10 0 59885 47700.00000 0 11024333.645 -10427832.729 -20470925.765 10 0 59885 48600.00000 0 13438722.747 -10712547.631 -18815040.779 10 0 59885 49500.00000 0 15602302.966 -11135275.468 -16792632.115 10 0 59885 50400.00000 0 17466857.327 -11653467.602 -14443119.689 10 0 59885 51300.00000 0 18994796.864 -12217498.456 -11812304.461 10 0 59885 52200.00000 0 20160518.565 -12772908.300 -8951466.651 10 0 59885 53100.00000 0 20951268.907 -13262864.888 -5916355.778 10 0 59885 54000.00000 0 21367477.855 -13630738.456 -2766093.162 10 0 59885 54900.00000 0 21422550.708 -13822679.876 437990.659 10 0 59885 55800.00000 0 21142128.285 -13790091.714 3633559.661 10 0 59885 56700.00000 0 20562848.595 -13491886.761 6758492.695 10 0 59885 57600.00000 0 19730664.162 -12896437.956 9752095.817 10 0 59885 58500.00000 0 18698787.780 -11983137.087 12556282.264 10 0 59885 59400.00000 0 17525354.815 -10743496.516 15116696.943 10 0 59885 60300.00000 0 16270901.619 -9181747.725 17383763.815 10 0 59885 61200.00000 0 14995766.707 -7314911.860 19313636.392 10 0 59885 62100.00000 0 13757523.944 -5172339.557 20869034.014 10 0 59885 63000.00000 0 12608554.863 -2794739.332 22019949.041 10 0 59885 63900.00000 0 11593860.922 -232734.974 22744212.686 10 0 59885 64800.00000 0 10749205.909 2454988.561 23027910.142 10 0 59885 65700.00000 0 10099664.638 5203874.628 22865638.277 10 0 59885 66600.00000 0 9658637.135 7945930.026 22260602.027 10 0 59885 67500.00000 0 9427368.075 10612306.440 21224548.319 10 0 59885 68400.00000 0 9394990.534 13135922.926 19777539.044 10 0 59885 69300.00000 0 9539091.528 15454022.497 17947567.280 10 0 59885 70200.00000 0 9826775.415 17510558.515 15770023.542 10 0 59885 71100.00000 0 10216180.767 19258313.430 13287021.421 10 0 59885 72000.00000 0 10658387.553 20660662.945 10546594.500 10 0 59885 72900.00000 0 11099635.152 21692913.009 7601778.804 10 0 59885 73800.00000 0 11483758.668 22343154.481 4509597.291 10 0 59885 74700.00000 0 11754741.447 22612599.622 1329965.039 10 0 59885 75600.00000 0 11859276.462 22515386.187 -1875464.577 10 0 59885 76500.00000 0 11749228.499 22077856.932 -5044490.865 10 0 59885 77400.00000 0 11383892.647 21337344.106 -8115571.052 10 0 59885 78300.00000 0 10731952.782 20340509.449 -11029016.374 10 0 59885 79200.00000 0 9773055.823 19141308.865 -13728155.555 10 0 59885 80100.00000 0 8498933.542 17798667.045 -16160442.511 10 0 59885 81000.00000 0 6914022.488 16373959.707 -18278486.222 10 0 59885 81900.00000 0 5035553.578 14928409.380 -20040982.095 10 0 59885 82800.00000 0 2893105.290 13520504.564 -21413525.942 10 0 59885 83700.00000 0 527636.951 12203551.208 -22369294.147 10 0 59885 84600.00000 0 -2009959.371 11023459.945 -22889576.088 10 0 59885 85500.00000 0 -4660729.386 10016862.691 -22964147.842 10 0 59886 0.00000 0 -7359872.350 9209638.329 -22591479.367 10 0 59886 900.00000 0 -10039211.848 8615909.416 -21778770.312 10 0 59886 1800.00000 0 -12629815.207 8237553.353 -20541813.890 10 0 59886 2700.00000 0 -15064657.140 8064247.040 -18904690.415 10 0 59886 3600.00000 0 -17281212.694 8074043.872 -16899296.650 10 0 59886 4500.00000 0 -19223872.299 8234457.630 -14564719.976 10 0 59886 5400.00000 0 -20846077.509 8504006.583 -11946469.800 10 0 59886 6300.00000 0 -22112088.031 8834151.355 -9095581.578 10 0 59886 7200.00000 0 -22998306.121 9171543.209 -6067611.703 10 0 59886 8100.00000 0 -23494103.447 9460486.080 -2921543.776 10 0 59886 9000.00000 0 -23602116.673 9645506.651 281371.365 10 0 59886 9900.00000 0 -23338000.696 9673922.265 3478817.959 10 0 59886 10800.00000 0 -22729651.592 9498296.809 6608635.501 10 0 59886 11700.00000 0 -21815933.819 9078679.794 9610032.075 10 0 59886 12600.00000 0 -20644967.070 8384533.460 12424766.500 10 0 59886 13500.00000 0 -19272046.495 7396266.342 14998276.085 10 0 59886 14400.00000 0 -17757285.053 6106308.665 17280728.260 10 0 59886 15300.00000 0 -16163077.843 4519684.579 19227976.248 10 0 59886 16200.00000 0 -14551495.062 2654057.413 20802401.280 10 0 59886 17100.00000 0 -12981712.485 539246.161 21973626.392 10 0 59886 18000.00000 0 -11507586.166 -1783766.649 22719089.405 10 0 59886 18900.00000 0 -10175471.429 -4264294.749 23024465.588 10 0 59886 19800.00000 0 -9022375.580 -6843815.632 22883933.150 10 0 59886 20700.00000 0 -8074519.774 -9458169.171 22300277.561 10 0 59886 21600.00000 0 -7346368.318 -12039997.578 21284833.383 10 0 59886 22500.00000 0 -6840164.414 -14521327.089 19857265.021 10 0 59886 23400.00000 0 -6545990.614 -16836185.975 18045190.429 10 0 59886 24300.00000 0 -6442350.651 -18923151.938 15883654.467 10 0 59886 25200.00000 0 -6497247.963 -20727724.653 13414461.106 10 0 59886 26100.00000 0 -6669715.718 -22204425.928 10685376.266 10 0 59886 27000.00000 0 -6911734.487 -23318541.099 7749215.470 10 0 59886 27900.00000 0 -7170457.378 -24047429.368 4662832.658 10 0 59886 28800.00000 0 -7390649.400 -24381348.315 1486028.718 10 0 59886 29700.00000 0 -7517238.603 -24323757.935 -1719599.960 10 0 59886 30600.00000 0 -7497871.347 -23891090.764 -4891851.220 10 0 59886 31500.00000 0 -7285363.525 -23111997.021 -7969122.232 10 0 59886 32400.00000 0 -6839943.430 -22026095.598 -10891606.587 10 0 59886 33300.00000 0 -6131190.306 -20682282.516 -13602459.886 10 0 59886 34200.00000 0 -5139585.117 -19136667.280 -16048910.653 10 0 59886 35100.00000 0 -3857606.141 -17450223.338 -18183294.438 10 0 59886 36000.00000 0 -2290320.995 -15686251.115 -19963990.368 10 0 59886 36900.00000 0 -455447.847 -13907760.140 -21356241.202 10 0 59886 37800.00000 0 1617119.038 -12174880.348 -22332840.297 10 0 59886 38700.00000 0 3886301.728 -10542411.463 -22874671.511 10 0 59886 39600.00000 0 6301309.256 -9057613.729 -22971090.822 10 0 59886 40500.00000 0 8803526.415 -7758332.983 -22620141.747 10 0 59886 41400.00000 0 11328742.890 -6671538.996 -21828599.752 10 0 59886 42300.00000 0 13809630.087 -5812338.560 -20611844.339 10 0 59886 43200.00000 0 16178362.494 -5183504.559 -18993560.904 10 0 59886 44100.00000 0 18369273.905 -4775540.342 -17005277.927 10 0 59886 45000.00000 0 20321437.110 -4567275.925 -14685748.463 10 0 59886 45900.00000 0 21981058.710 -4526969.755 -12080188.182 10 0 59886 46800.00000 0 23303588.469 -4613868.146 -9239385.215 10 0 59886 47700.00000 0 24255454.553 -4780154.925 -6218699.908 10 0 59886 48600.00000 0 24815352.061 -4973207.105 -3076974.935 10 0 59886 49500.00000 0 24975031.249 -5138059.361 124621.973 10 0 59886 50400.00000 0 24739553.246 -5219971.385 3323798.813 10 0 59886 51300.00000 0 24127003.807 -5166987.937 6458359.155 10 0 59886 52200.00000 0 23167678.673 -4932382.148 9467416.375 10 0 59886 53100.00000 0 21902776.465 -4476877.936 12292577.854 10 0 59886 54000.00000 0 20382655.623 -3770557.223 14879075.910 10 0 59886 54900.00000 0 18664729.958 -2794371.382 17176823.650 10 0 59886 55800.00000 0 16811092.074 -1541193.402 19141375.778 10 0 59886 56700.00000 0 14885964.709 -16366.761 20734776.744 10 0 59886 57600.00000 0 12953086.489 1762271.804 21926281.159 10 0 59886 58500.00000 0 11073140.711 3764896.530 22692933.923 10 0 59886 59400.00000 0 9301333.274 5950703.006 23020000.413 10 0 59886 60300.00000 0 7685219.143 8269383.194 22901239.799 10 0 59886 61200.00000 0 6262866.151 10663004.515 22339017.283 10 0 59886 62100.00000 0 5061430.723 13068216.172 21344253.876 10 0 59886 63000.00000 0 4096203.060 15418692.563 19936214.938 10 0 59886 63900.00000 0 3370160.092 17647713.850 18142141.432 10 0 59886 64800.00000 0 2874043.610 19690778.174 15996730.425 10 0 59886 65700.00000 0 2586959.531 21488138.437 13541473.919 10 0 59886 66600.00000 0 2477472.830 22987159.282 10823867.682 10 0 59886 67500.00000 0 2505152.177 24144397.053 7896504.103 10 0 59886 68400.00000 0 2622499.601 24927316.408 4816065.372 10 0 59886 69300.00000 0 2777184.370 25315571.902 1642235.458 10 0 59886 70200.00000 0 2914487.178 25301800.456 -1563448.964 10 0 59886 71100.00000 0 2979851.674 24891890.867 -4738786.939 10 0 59886 72000.00000 0 2921435.517 24104718.265 -7822118.113 10 0 59886 72900.00000 0 2692552.612 22971353.414 -10753520.770 10 0 59886 73800.00000 0 2253902.404 21533779.010 -13475979.495 10 0 59886 74700.00000 0 1575490.754 19843165.880 -15936499.258 10 0 59886 75600.00000 0 638159.545 17957780.603 -18087143.753 10 0 59886 76500.00000 0 -565341.488 15940611.765 -19885977.147 10 0 59886 77400.00000 0 -2029788.052 13856814.079 -21297890.215 10 0 59886 78300.00000 0 -3737445.818 11771077.394 -22295294.135 10 0 59886 79200.00000 0 -5658569.850 9745030.907 -22858667.818 10 0 59886 80100.00000 0 -7752419.955 7834791.503 -22976947.455 10 0 59886 81000.00000 0 -9968751.026 6088759.166 -22647750.143 10 0 59886 81900.00000 0 -12249717.325 4545751.885 -21877426.696 10 0 59886 82800.00000 0 -14532111.725 3233558.334 -20680942.099 10 0 59886 83700.00000 0 -16749846.675 2167968.737 -19081585.596 10 0 59886 84600.00000 0 -18836573.100 1352324.107 -17110515.742 10 0 59886 85500.00000 0 -20728327.193 777602.026 -14806149.283 10 0 59887 0.00000 0 -22366093.694 423034.169 -12213406.151 10 0 59887 900.00000 0 -23698178.469 257227.954 -9382824.237 10 0 59887 1800.00000 0 -24682288.193 239743.718 -6369565.515 10 0 59887 2700.00000 0 -25287232.580 323058.244 -3232329.102 10 0 59887 3600.00000 0 -25494175.415 454830.197 -32196.964 10 0 59887 4500.00000 0 -25297383.200 580369.507 3168565.322 10 0 59887 5400.00000 0 -24704440.640 645204.512 6307728.084 10 0 59887 6300.00000 0 -23735925.046 597636.803 9324312.641 10 0 59887 7200.00000 0 -22424554.739 391174.660 12159777.533 10 0 59887 8100.00000 0 -20813848.653 -13258.387 14759152.573 10 0 59887 9000.00000 0 -18956354.672 -645433.420 17072098.839 10 0 59887 9900.00000 0 -16911522.020 -1524323.959 19053874.528 10 0 59887 10800.00000 0 -14743307.336 -2657074.313 20666188.976 10 0 59887 11700.00000 0 -12517614.520 -4038471.486 21877929.614 10 0 59887 12600.00000 0 -10299674.777 -5650942.480 22665749.201 10 0 59887 13500.00000 0 -8151474.981 -7465077.114 23014503.545 10 0 59887 14400.00000 0 -6129339.964 -9440654.822 22917532.633 10 0 59887 15300.00000 0 -4281767.537 -11528133.232 22376780.837 10 0 59887 16200.00000 0 -2647604.346 -13670537.514 21402754.663 10 0 59887 17100.00000 0 -1254636.394 -15805673.227 20014319.141 10 0 59887 18000.00000 0 -118651.226 -17868572.013 18238336.652 10 0 59887 18900.00000 0 756990.789 -19794069.990 16109154.621 10 0 59887 19800.00000 0 1381259.278 -21519412.963 13667951.001 10 0 59887 20700.00000 0 1774835.634 -22986781.230 10961949.125 10 0 59887 21600.00000 0 1968999.980 -24145629.651 8043515.846 10 0 59887 22500.00000 0 2004070.086 -24954745.768 4969159.122 10 0 59887 23400.00000 0 1927457.668 -25383939.997 1798443.446 10 0 59887 24300.00000 0 1791423.734 -25415296.725 -1407156.794 10 0 59887 25200.00000 0 1650627.400 -25043933.208 -4585444.379 10 0 59887 26100.00000 0 1559571.687 -24278233.321 -7674703.953 10 0 59887 27000.00000 0 1570054.456 -23139545.118 -10614900.975 10 0 59887 27900.00000 0 1728732.840 -21661353.518 -13348851.416 10 0 59887 28800.00000 0 2074905.151 -19887961.477 -15823338.997 10 0 59887 29700.00000 0 2638605.303 -17872733.847 -17990157.677 10 0 59887 30600.00000 0 3439091.956 -15675976.565 -19807058.556 10 0 59887 31500.00000 0 4483797.967 -13362539.387 -21238581.985 10 0 59887 32400.00000 0 5767786.519 -10999242.069 -22256758.139 10 0 59887 33300.00000 0 7273738.874 -8652231.522 -22841661.742 10 0 59887 34200.00000 0 8972476.192 -6384380.464 -22981809.509 10 0 59887 35100.00000 0 10823995.259 -4252836.452 -22674392.014 10 0 59887 36000.00000 0 12778976.043 -2306823.817 -21925334.914 10 0 59887 36900.00000 0 14780698.825 -585790.540 -20749187.818 10 0 59887 37800.00000 0 16767291.100 882022.571 -19168842.610 10 0 59887 38700.00000 0 18674210.196 2080530.907 -17215086.404 10 0 59887 39600.00000 0 20436857.210 3006234.160 -14925997.786 10 0 59887 40500.00000 0 21993212.116 3668106.632 -12346198.284 10 0 59887 41400.00000 0 23286378.746 4086955.839 -9525973.993 10 0 59887 42300.00000 0 24266932.031 4294278.093 -6520285.265 10 0 59887 43200.00000 0 24894968.304 4330661.372 -3387684.623 10 0 59887 44100.00000 0 25141772.146 4243805.008 -189165.081 10 0 59887 45000.00000 0 24991029.655 4086241.966 3013037.461 10 0 59887 45900.00000 0 24439537.547 3912862.019 6156663.265 10 0 59887 46800.00000 0 23497378.964 3778342.254 9180644.606 10 0 59887 47700.00000 0 22187559.666 3734594.885 12026293.941 10 0 59887 48600.00000 0 20545121.039 3828341.108 14638441.016 10 0 59887 49500.00000 0 18615768.259 4098913.891 16966496.966 10 0 59887 50400.00000 0 16454072.099 4576382.363 18965425.204 10 0 59887 51300.00000 0 14121320.229 5280076.524 20596601.310 10 0 59887 52200.00000 0 11683107.890 6217573.871 21828546.521 10 0 59887 53100.00000 0 9206768.145 7384189.955 22637522.073 10 0 59887 54000.00000 0 6758747.808 8762993.942 23007974.437 10 0 59887 54900.00000 0 4402036.809 10325348.449 22932824.247 10 0 59887 55800.00000 0 2193756.174 12031951.365 22413594.462 10 0 59887 56700.00000 0 183002.809 13834336.864 21460376.076 10 0 59887 57600.00000 0 -1590961.449 15676774.062 20091632.369 10 0 59887 58500.00000 0 -3100103.148 17498485.412 18333845.347 10 0 59887 59400.00000 0 -4328536.688 19236093.809 16221010.660 10 0 59887 60300.00000 0 -5272933.112 20826197.855 13793989.826 10 0 59887 61200.00000 0 -5942402.116 22207969.083 11099731.173 10 0 59887 62100.00000 0 -6357852.879 23325663.653 8190373.294 10 0 59887 63000.00000 0 -6550860.812 24130944.271 5122247.105 10 0 59887 63900.00000 0 -6562087.733 24584915.154 1954794.790 10 0 59887 64800.00000 0 -6439321.823 24659784.453 -1250574.371 10 0 59887 65700.00000 0 -6235219.765 24340083.787 -4431669.688 10 0 59887 66600.00000 0 -6004846.180 23623392.533 -7526723.475 10 0 59887 67500.00000 0 -5803114.363 22520535.092 -10475590.859 10 0 59887 68400.00000 0 -5682236.838 21055241.196 -13220921.491 10 0 59887 69300.00000 0 -5689294.136 19263281.959 -15709279.863 10 0 59887 70200.00000 0 -5864025.589 17191116.380 -17892191.953 10 0 59887 71100.00000 0 -6236936.791 14894103.652 -19727097.243 10 0 59887 72000.00000 0 -6827805.176 12434355.118 -21178186.833 10 0 59887 72900.00000 0 -7644648.525 9878314.919 -22217110.773 10 0 59887 73800.00000 0 -8683201.700 7294169.941 -22823540.178 10 0 59887 74700.00000 0 -9926925.397 4749197.084 -22985572.536 10 0 59887 75600.00000 0 -11347548.192 2307158.498 -22699971.787 10 0 59887 76500.00000 0 -12906120.494 25853.574 -21972237.911 10 0 59887 77400.00000 0 -14554537.101 -2045070.003 -20816504.201 10 0 59887 78300.00000 0 -16237465.087 -3865954.816 -19255263.804 10 0 59887 79200.00000 0 -17894596.241 -5408545.263 -17318930.598 10 0 59887 80100.00000 0 -19463129.260 -6656913.557 -15045242.864 10 0 59887 81000.00000 0 -20880376.851 -7607862.266 -12478521.531 10 0 59887 81900.00000 0 -22086387.427 -8270787.820 -9668797.790 10 0 59887 82800.00000 0 -23026470.223 -8667012.280 -6670827.823 10 0 59887 83700.00000 0 -23653516.762 -8828613.506 -3543014.727 10 0 59887 84600.00000 0 -23930020.313 -8796805.169 -346259.688 10 0 59887 85500.00000 0 -23829707.918 -8619937.174 2857233.919 10 0 59888 0.00000 0 -23338716.326 -8351203.180 6005178.848 10 0 59888 900.00000 0 -22456262.340 -8046153.817 9036421.676 10 0 59888 1800.00000 0 -21194780.792 -7760122.690 11892131.151 10 0 59888 2700.00000 0 -19579524.313 -7545674.527 14516939.464 10 0 59888 3600.00000 0 -17647643.211 -7450184.206 16860010.070 10 0 59888 4500.00000 0 -15446784.666 -7513648.778 18876013.555 10 0 59888 5400.00000 0 -13033270.484 -7766824.434 20525993.298 10 0 59888 6300.00000 0 -10469929.678 -8229766.217 21778105.465 10 0 59888 7200.00000 0 -7823676.049 -8910831.158 22608220.420 10 0 59888 8100.00000 0 -5162930.833 -9806185.976 23000375.468 10 0 59888 9000.00000 0 -2554996.250 -10899839.545 22947071.617 10 0 59888 9900.00000 0 -63487.510 -12164198.559 22449409.716 10 0 59888 10800.00000 0 2254072.144 -13561123.467 21517064.194 10 0 59888 11700.00000 0 4348395.600 -15043441.156 20168095.203 10 0 59888 12600.00000 0 6180228.178 -16556852.200 18428602.707 10 0 59888 13500.00000 0 7721723.362 -18042154.212 16332228.668 10 0 59888 14400.00000 0 8957342.291 -19437689.803 13919516.002 10 0 59888 15300.00000 0 9884240.682 -20681917.962 11237135.625 10 0 59888 16200.00000 0 10512127.962 -21716002.549 8336995.276 10 0 59888 17100.00000 0 10862604.910 -22486310.143 5275246.082 10 0 59888 18000.00000 0 10968007.671 -22946712.776 2111205.037 10 0 59888 18900.00000 0 10869806.720 -23060598.941 -1093786.600 10 0 59888 19800.00000 0 10616627.902 -22802507.629 -4277547.544 10 0 59888 20700.00000 0 10261978.803 -22159315.733 -7378260.577 10 0 59888 21600.00000 0 9861776.315 -21130927.551 -10335673.178 10 0 59888 22500.00000 0 9471779.909 -19730435.567 -13092271.177 10 0 59888 23400.00000 0 9145039.453 -17983743.993 -15594402.132 10 0 59888 24300.00000 0 8929466.104 -15928669.020 -17793326.078 10 0 59888 25200.00000 0 8865629.840 -13613551.786 -19646172.591 10 0 59888 26100.00000 0 8984877.857 -11095440.700 -21116784.868 10 0 59888 27000.00000 0 9307854.617 -8437917.971 -22176433.749 10 0 59888 27900.00000 0 9843487.490 -5708660.223 -22804387.196 10 0 59888 28800.00000 0 10588482.222 -2976834.588 -22988323.471 10 0 59888 29700.00000 0 11527350.908 -310438.583 -22724579.424 10 0 59888 30600.00000 0 12632972.549 2226305.439 -22018228.498 10 0 59888 31500.00000 0 13867663.529 4575392.421 -20882986.420 10 0 59888 32400.00000 0 15184713.616 6687211.559 -19340946.041 10 0 59888 33300.00000 0 16530323.075 8522367.229 -17422146.140 10 0 59888 34200.00000 0 17845859.225 10053068.094 -15163982.556 10 0 59888 35100.00000 0 19070336.934 11264026.918 -12610473.225 10 0 59888 36000.00000 0 20143017.804 12152834.397 -9811391.800 10 0 59888 36900.00000 0 21006017.582 12729792.682 -6821287.457 10 0 59888 37800.00000 0 21606810.904 13017217.374 -3698410.872 10 0 59888 38700.00000 0 21900526.889 13048239.438 -503568.346 10 0 59888 39600.00000 0 21851938.111 12865159.713 2701072.333 10 0 59888 40500.00000 0 21437058.730 12517427.716 5853199.907 10 0 59888 41400.00000 0 20644284.397 12059332.131 8891576.858 10 0 59888 42300.00000 0 19475026.256 11547502.294 11757231.292 10 0 59888 43200.00000 0 17943812.897 11038327.540 14394600.016 10 0 59888 44100.00000 0 16077856.648 10585404.152 16752600.667 10 0 59888 45000.00000 0 13916103.096 10237117.882 18785612.530 10 0 59888 45900.00000 0 11507804.126 10034463.696 20454348.004 10 0 59888 46800.00000 0 8910674.251 10009193.874 21726599.082 10 0 59888 47700.00000 0 6188707.011 10182371.432 22577845.830 10 0 59888 48600.00000 0 3409741.625 10563388.616 22991716.639 10 0 59888 49500.00000 0 642879.899 11149490.768 22960292.764 10 0 59888 50400.00000 0 -2044140.820 11925824.860 22484252.443 10 0 59888 51300.00000 0 -4587511.538 12866010.390 21572852.618 10 0 59888 52200.00000 0 -6929748.068 13933208.909 20243748.973 10 0 59888 53100.00000 0 -9021822.554 15081647.971 18522657.692 10 0 59888 54000.00000 0 -10824943.581 16258536.646 16442864.942 10 0 59888 54900.00000 0 -12311912.538 17406293.550 14044592.643 10 0 59888 55800.00000 0 -13468001.036 18464995.238 11374231.703 10 0 59888 56700.00000 0 -14291313.847 19374943.477 8483456.267 10 0 59888 57600.00000 0 -14792622.705 20079244.577 5428234.848 10 0 59888 58500.00000 0 -14994678.150 20526292.939 2267756.457 10 0 59888 59400.00000 0 -14931028.229 20672054.422 -936708.450 10 0 59888 60300.00000 0 -14644393.512 20482053.035 -4122990.729 10 0 59888 61200.00000 0 -14184666.618 19932976.570 -7229226.264 10 0 59888 62100.00000 0 -13606620.314 19013832.098 -10195057.390 10 0 59888 63000.00000 0 -12967420.818 17726601.032 -12962808.461 10 0 59888 63900.00000 0 -12324051.405 16086364.318 -15478612.216 10 0 59888 64800.00000 0 -11730755.493 14120890.357 -17693464.585 10 0 59888 65700.00000 0 -11236607.766 11869700.981 -19564186.796 10 0 59888 66600.00000 0 -10883316.754 9382652.790 -21054275.369 10 0 59888 67500.00000 0 -10703352.593 6718091.638 -22134622.843 10 0 59888 68400.00000 0 -10718480.093 3940656.067 -22784094.597 10 0 59888 69300.00000 0 -10938760.140 1118820.589 -22989949.877 10 0 59888 70200.00000 0 -11362062.647 -1677719.344 -22748098.276 10 0 59888 71100.00000 0 -11974112.570 -4380711.957 -22063186.135 10 0 59888 72000.00000 0 -12749067.840 -6925952.284 -20948510.653 10 0 59888 72900.00000 0 -13650605.349 -9255715.275 -19425762.992 10 0 59888 73800.00000 0 -14633469.412 -11320917.406 -17524605.060 10 0 59888 74700.00000 0 -15645417.234 -13082916.529 -15282088.146 10 0 59888 75600.00000 0 -16629478.845 -14514875.142 -12741924.810 10 0 59888 76500.00000 0 -17526435.341 -15602630.687 -9953628.594 10 0 59888 77400.00000 0 -18277409.834 -16345037.408 -6971538.974 10 0 59888 78300.00000 0 -18826460.604 -16753766.913 -3853751.450 10 0 59888 79200.00000 0 -19123065.879 -16852577.631 -660974.668 10 0 59888 80100.00000 0 -19124394.397 -16676085.976 2544661.933 10 0 59888 81000.00000 0 -18797265.228 -16268093.219 5700825.535 10 0 59888 81900.00000 0 -18119713.785 -15679540.758 8746197.780 10 0 59888 82800.00000 0 -17082098.003 -14966181.992 11621668.446 10 0 59888 83700.00000 0 -15687698.360 -14186070.586 14271481.427 10 0 59888 84600.00000 0 -13952786.908 -13396972.089 16644310.812 10 0 59888 85500.00000 0 -11906162.985 -12653808.530 18694246.595 99